Location: Newark
(35.0317°N, 117.3481°W)
Time: 01:25:06
(UTC+00:00)

N. Korean satellite - Visible Passes

Search period start: 25 March 2019 00:00
Search period end: 04 April 2019 00:00
Orbit: 456 x 510 km, 97.2° (Epoch: 24 March)

Date Brightness Start Highest point End Pass type
(mag) Time Alt. Az. Time Alt. Az. Time Alt. Az.
25 Mar 10.2 12:55:59 10° ENE 12:57:18 12° E 12:58:39 10° ESE visible
28 Mar 9.7 13:13:33 10° NE 13:16:21 21° E 13:19:11 10° SSE visible
01 Apr 9.8 13:07:50 10° NE 13:10:25 18° E 13:13:00 10° SE visible
